This is the latest recevied weather packets stored in our database for station/object K0SNA. If no packets are shown the sender has not sent any weather packets the latest 1 day(s).
| Time | Temp. | Humidity | Pressure | Rain* | Wind** | Luminosity | Snow |
|---|---|---|---|---|---|---|---|
| 1778014303 | 9.44° C | 40% | 1011.3 hPa | 0 mm | 3.58 m/s, 281° | 183 W/m² | - |
| 1778014003 | 10° C | 39% | 1010.9 hPa | 0 mm | 1.34 m/s, 204° | 141 W/m² | - |
| 1778013697 | 10° C | 40% | 1011.3 hPa | 0 mm | 0.45 m/s, 210° | 222 W/m² | - |
| 1778013394 | 10° C | 40% | 1011.2 hPa | 0 mm | 1.34 m/s, 256° | 211 W/m² | - |
| 1778013091 | 10° C | 40% | 1011.2 hPa | 0 mm | 1.34 m/s, 330° | 258 W/m² | - |
| 1778012786 | 9.44° C | 40% | 1011.3 hPa | 0 mm | 1.79 m/s, 284° | 373 W/m² | - |
| 1778012483 | 9.44° C | 40% | 1011.4 hPa | 0 mm | 2.24 m/s, 3° | 223 W/m² | - |
| 1778012179 | 9.44° C | 40% | 1011.3 hPa | 0 mm | 2.68 m/s, 331° | 182 W/m² | - |
| 1778011877 | 9.44° C | 40% | 1011.3 hPa | 0 mm | 0.89 m/s, 271° | 116 W/m² | - |
| 1778011575 | 9.44° C | 41% | 1011.4 hPa | 0 mm | 1.34 m/s, 262° | 150 W/m² | - |
| 1778011272 | 9.44° C | 41% | 1011.3 hPa | 0 mm | 0.89 m/s, 282° | 237 W/m² | - |
| 1778010968 | 9.44° C | 40% | 1011.4 hPa | 0 mm | 1.79 m/s, 298° | 439 W/m² | - |
| 1778010666 | 9.44° C | 40% | 1011.2 hPa | 0 mm | 3.13 m/s, 310° | 143 W/m² | - |
| 1778010363 | 10.56° C | 39% | 1011.3 hPa | 0 mm | 1.79 m/s, 265° | 196 W/m² | - |
| 1778010058 | 10° C | 39% | 1011.3 hPa | 0 mm | 2.24 m/s, 268° | 464 W/m² | - |
| 1778009755 | 10° C | 39% | 1011.4 hPa | 0 mm | 3.58 m/s, 274° | 383 W/m² | - |
| 1778009452 | 10° C | 39% | 1011.3 hPa | 0 mm | 1.79 m/s, 243° | 358 W/m² | - |
| 1778009151 | 10° C | 39% | 1011.4 hPa | 0 mm | 2.68 m/s, 339° | 243 W/m² | - |
| 1778008848 | 10° C | 40% | 1011.4 hPa | 0 mm | 1.34 m/s, 268° | 295 W/m² | - |
| 1778008546 | 10° C | 40% | 1011.4 hPa | 0 mm | 1.34 m/s, 211° | 360 W/m² | - |
| 1778008244 | 10° C | 39% | 1011.2 hPa | 0 mm | 3.13 m/s, 299° | 282 W/m² | - |
| 1778007938 | 10.56° C | 39% | 1011.3 hPa | 0 mm | 2.24 m/s, 319° | 845 W/m² | - |
| 1778007634 | 10° C | 40% | 1011.5 hPa | 0 mm | 2.24 m/s, 243° | 594 W/m² | - |
| 1778007331 | 10° C | 40% | 1011.5 hPa | 0 mm | 1.34 m/s, 290° | 878 W/m² | - |
| 1778007028 | 9.44° C | 40% | 1011.4 hPa | 0 mm | 3.13 m/s, 248° | 293 W/m² | - |
* Rain latest hour (hover to see other rain measurements)
** Current wind speed in m/s (hover to see current wind gust speed)